This is the latest recevied weather packets stored in our database for station/object K0JRF-13. If no packets are shown the sender has not sent any weather packets the latest 10 day(s).
| Time | Temp. | Humidity | Pressure | Rain* | Wind** | Luminosity | Snow |
|---|---|---|---|---|---|---|---|
| 1787815047 | 18.89° C | 88% | 1012.5 hPa | - | - | - | - |
| 1787814447 | 18.89° C | 87% | 1012.5 hPa | - | - | - | - |
| 1787813847 | 18.89° C | 88% | 1012.5 hPa | - | - | - | - |
| 1787813247 | 18.89° C | 87% | 1012.5 hPa | - | - | - | - |
| 1787812647 | 18.89° C | 87% | 1012.9 hPa | - | - | - | - |
| 1787812047 | 19.44° C | 84% | 1012.9 hPa | - | - | - | - |
| 1787811447 | 19.44° C | 83% | 1012.9 hPa | - | - | - | - |
| 1787810847 | 19.44° C | 81% | 1012.2 hPa | - | - | - | - |
| 1787810247 | 19.44° C | 76% | 1012.2 hPa | - | - | - | - |
| 1787809647 | 19.44° C | 78% | 1012.2 hPa | - | - | - | - |
| 1787809047 | 19.44° C | 81% | 1012.2 hPa | - | - | - | - |
| 1787808447 | 19.44° C | 80% | 1012.2 hPa | - | - | - | - |
| 1787807847 | 19.44° C | 80% | 1012.5 hPa | - | - | - | - |
| 1787807247 | 19.44° C | 81% | 1012.5 hPa | - | - | - | - |
| 1787806647 | 19.44° C | 81% | 1012.5 hPa | - | - | - | - |
| 1787806047 | 18.89° C | 80% | 1012.5 hPa | - | - | - | - |
| 1787805447 | 18.89° C | 81% | 1012.5 hPa | - | - | - | - |
| 1787804847 | 18.89° C | 82% | 1012.9 hPa | - | - | - | - |
| 1787804247 | 18.89° C | 82% | 1012.9 hPa | - | - | - | - |
| 1787803647 | 18.89° C | 82% | 1013.2 hPa | - | - | - | - |
| 1787803047 | 18.89° C | 83% | 1012.9 hPa | - | - | - | - |
| 1787802447 | 19.44° C | 82% | 1013.2 hPa | - | - | - | - |
| 1787801847 | 19.44° C | 82% | 1012.9 hPa | - | - | - | - |
| 1787801247 | 19.44° C | 82% | 1012.9 hPa | - | - | - | - |
| 1787800647 | 20° C | 82% | 1012.9 hPa | - | - | - | - |
* Rain since midnight (hover to see other rain measurements)
** Current wind speed in m/s (hover to see current wind gust speed)